Hourly Data Report for September 03, 2017

All times are specified in Local Standard Time (LST). Add 1 hour to adjust for Daylight Saving Time where and when it is observed.

EDMUNDSTON
NEW BRUNSWICK

47°25'00.000" N
68°19'28.040" W
154.20 m
8101303
71590
ERM

Download Data

Hourly Data (September 2017)
Hourly Data Report for September 3, 2017
Temp Definition
°C
Dew Point Temp Definition
°C
Rel Hum Definition
%
Wind Dir Definition
10's deg

Wind Spd Definition
km/h
Visibility Definition
km
Stn Press Definition
kPa
Hmdx Definition


Wind Chill Definition


Weather Definition


TIME
00:00 3.5 2.6 94 0 1   100.40     LegendNANA
01:00 2.7 1.9 94 29 2   100.38     LegendNANA
02:00 1.8 1.0 94 36 1   100.40     LegendNANA
03:00 1.7 1.0 95 31 1   100.43     LegendNANA
04:00 0.8 0.1 95 0 1   100.41     LegendNANA
05:00 1.3 0.6 96   0   100.41     LegendNANA
06:00 1.0 0.4 96 33 1   100.40     LegendNANA
07:00 1.9 1.3 96   0   100.43     LegendNANA
08:00 4.6 3.9 95   0   100.43     LegendNANA
09:00 8.4 6.0 85 0 1   100.37     LegendNANA
10:00 14.8 8.6 67 14 10   100.28     LegendNANA
11:00 17.7 9.3 58 14 9   100.19     LegendNANA
12:00 20.0 9.4 50 14 9   100.07     LegendNANA
13:00 21.3 8.3 43 14 16   99.94     LegendNANA
14:00 21.3 8.3 43 16 13   99.85     LegendNANA
15:00 21.2 9.1 46 15 15   99.76     LegendNANA
16:00 21.2 8.6 45 14 17   99.70     LegendNANA
17:00 20.8 8.6 46 13 17   99.59     LegendNANA
18:00 18.8 8.4 51 15 14   99.53     LegendNANA
19:00 17.5 8.6 56 14 9   99.44     LegendNANA
20:00 16.5 7.5 55 14 11   99.41     LegendNANA
21:00 14.9 8.0 63 16 12   99.38     LegendNANA
22:00 12.0 9.9 87 11 4   99.33     LegendNANA
23:00 11.5 10.2 92 0 1   99.23     LegendNANA

Notes on Data Quality.

Legend

  • E = Estimated
  • M = Missing
  • NA = Not Available
  • ‡ = Partner data that is not subject to review by the National Climate Archives
Date modified: